Location: Aula-Vintri
(58.3875°N, 22.4322°E)
Time: 11:10:20
(UTC+00:00)

Cosmos 2278 Rocket - Pass Details

Date: 13 October 2019
Orbit: 840 x 846 km, 71.0° (Epoch: 17 November)

Event Time Altitude Azimuth Distance (km) Brightness Sun altitude
Rises 18:54:07 0° 207° (SSW) 3,397 5.3 -26.5°
Reaches altitude 10° 18:56:33 10° 206° (SSW) 2,466 4.5 -26.8°
Enters shadow 18:57:42 17° 204° (SSW) 2,040 4.1 -26.9°
Exits shadow 19:07:52 10° 39° (NE) 2,475 4.6 -28.0°
Drops below altitude 10° 19:07:53 10° 39° (NE) 2,483 4.6 -28.0°
Sets 19:10:21 0° 38° (NE) 3,422 5.3 -28.3°
